Weather History for Austin Bergstrom, TX

Change the Weather History Date:

Sunday, December 22, 2013

  Actual Average Record
Temperature  
Mean Temperature 45 °F 49 °F  
Max Temperature 56 °F 63 °F 80 °F (1988)
Min Temperature 33 °F 36 °F 16 °F (1989)
Degree Days  
Heating Degree Days 20 16  
Month to date heating degree days 358 318  
Since 1 July heating degree days 683 603  
Cooling Degree Days 0 0  
Month to date cooling degree days 5 5  
Year to date cooling degree days 3045 2746  
Moisture  
Dew Point 36 °F    
Average Humidity 73    
Maximum Humidity 100    
Minimum Humidity 46    
Precipitation  
Precipitation 0.00 in 0.08 in 2.73 in (1986)
Month to date precipitation 0.86 1.58  
Year to date precipitation 37.04 31.48  
Snow  
Snow 0.00 in - - ()
Month to date snowfall T  
Since 1 July snowfall T  
Snow Depth 0.00 in    
Sea Level Pressure  
Sea Level Pressure 30.13 in    
Wind  
Wind Speed 9 mph (NNW)    
Max Wind Speed 20 mph    
Max Gust Speed 25 mph    
Visibility 10 miles    
Events      
T = Trace of Precipitation, MM = Missing Value Source: NWS Daily Summary

Daily Weather History Graph

Daily Weather History Graph

Search for Another Location

Airport:

Trip Planner

Search our weather history database for the weather conditions in past years. The results will help you decide how hot, cold, wet, or windy it might be!

Date:

Astronomy

Dec. 22, 2013 Rise Set
Actual Time 7:23 AM CST 5:35 PM CST
Civil Twilight 6:57 AM CST 6:01 PM CST
Nautical Twilight 6:27 AM CST 6:31 PM CST
Astronomical Twilight 5:57 AM CST 7:01 PM CST
Moon 10:29 PM CST (12/22) 10:38 AM CST (12/22)
Length of Visible Light 11h 04m
Length of Day
10h 12m
Waning Gibbous, 76% of the Moon is Illuminated
Dec 22
Waning Gibbous
Dec 25
Last Quarter
Jan 1
New
Jan 7
First Quarter
Jan 15
Full

Hourly Weather History & Observations

Time (CST) Temp. Windchill Dew Point Humidity Pressure Visibility Wind Dir Wind Speed Gust Speed Precip Events Conditions
12:53 AM 39.0 °F - 39.0 °F 100% 29.87 in 8.0 mi Calm Calm - N/A   Partly Cloudy
1:53 AM 39.0 °F 36.8 °F 37.9 °F 96% 29.87 in 9.0 mi West 3.5 mph - N/A   Partly Cloudy
2:53 AM 41.0 °F 38.0 °F 39.0 °F 93% 29.89 in 10.0 mi West 4.6 mph - N/A   Scattered Clouds
3:53 AM 39.0 °F - 37.9 °F 96% 29.91 in 10.0 mi Calm Calm - N/A   Partly Cloudy
4:53 AM 37.9 °F 34.4 °F 37.0 °F 97% 29.92 in 8.0 mi West 4.6 mph - N/A   Partly Cloudy
5:53 AM 41.0 °F - 37.9 °F 89% 29.94 in 10.0 mi Calm Calm - N/A   Partly Cloudy
6:53 AM 39.0 °F 36.8 °F 37.0 °F 93% 29.98 in 10.0 mi WNW 3.5 mph - N/A   Scattered Clouds
7:42 AM 42.8 °F 35.8 °F 39.2 °F 87% 30.01 in 10.0 mi North 13.8 mph - N/A   Scattered Clouds
7:53 AM 43.0 °F 37.2 °F 39.9 °F 89% 30.04 in 10.0 mi North 10.4 mph - N/A   Scattered Clouds
8:14 AM 42.8 °F 36.6 °F 39.2 °F 87% 30.04 in 10.0 mi North 11.5 mph - N/A   Mostly Cloudy
8:53 AM 44.1 °F 37.7 °F 41.0 °F 89% 30.09 in 10.0 mi North 12.7 mph - N/A   Overcast
9:24 AM 44.6 °F 39.2 °F 42.8 °F 93% 30.11 in 10.0 mi North 10.4 mph - N/A   Overcast
9:53 AM 46.9 °F - 42.1 °F 83% 30.13 in 10.0 mi North 10.4 mph - N/A   Overcast
10:16 AM 46.4 °F 41.1 °F 41.0 °F 81% 30.13 in 10.0 mi North 11.5 mph - N/A   Overcast
10:40 AM 46.4 °F 40.7 °F 39.2 °F 76% 30.14 in 10.0 mi North 12.7 mph - N/A   Mostly Cloudy
10:53 AM 48.9 °F - 39.9 °F 71% 30.16 in 10.0 mi NNW 12.7 mph - N/A   Mostly Cloudy
11:53 AM 52.0 °F - 39.9 °F 63% 30.16 in 10.0 mi NNW 9.2 mph 16.1 mph N/A   Scattered Clouds
12:53 PM 53.1 °F - 39.9 °F 61% 30.14 in 10.0 mi NW 9.2 mph - N/A   Scattered Clouds
1:53 PM 54.0 °F - 37.9 °F 55% 30.13 in 10.0 mi NW 11.5 mph 19.6 mph N/A   Scattered Clouds
2:53 PM 55.0 °F - 37.0 °F 51% 30.13 in 10.0 mi North 15.0 mph - N/A   Partly Cloudy
3:53 PM 54.0 °F - 33.1 °F 45% 30.16 in 10.0 mi NNW 15.0 mph 25.3 mph N/A   Clear
4:53 PM 51.1 °F - 32.0 °F 48% 30.19 in 10.0 mi North 18.4 mph 23.0 mph N/A   Clear
5:53 PM 46.9 °F - 30.9 °F 54% 30.23 in 10.0 mi North 10.4 mph - N/A   Partly Cloudy
6:53 PM 44.1 °F 39.0 °F 30.9 °F 60% 30.26 in 10.0 mi North 9.2 mph - N/A   Partly Cloudy
7:53 PM 43.0 °F 36.8 °F 30.9 °F 62% 30.30 in 10.0 mi North 11.5 mph - N/A   Clear
8:53 PM 42.1 °F 34.5 °F 30.0 °F 62% 30.33 in 10.0 mi North 15.0 mph - N/A   Clear
9:53 PM 39.9 °F 33.4 °F 30.0 °F 68% 30.36 in 10.0 mi North 10.4 mph - N/A   Clear
10:53 PM 34.0 °F 28.0 °F 28.0 °F 79% 30.39 in 10.0 mi North 6.9 mph - N/A   Clear
11:53 PM 37.9 °F 32.7 °F 28.0 °F 68% 30.40 in 10.0 mi NNE 6.9 mph - N/A   Clear